www.pogodaiklimat.ru

Погода и климат >> Архив погоды >> Мали >> Кутиала


ПОГОДА в Кутиале

  • Прогноз погоды в Кутиале
  • Монитор погоды в Кутиале

АРХИВ ПОГОДЫ в Кутиале

Время (UTC), дата Ветер
(напр.,м/с)
 
Видим.   Явления Облачность Т
(С)
Тd
(С)
f
(%)
Тe
(С)
Тes
(С)
Комфортность P
(гПа)
Po
(гПа)
Тmin
(С)
Tmax
(С)
R
(мм)
R24
(мм)
S
(см)
03 9.09 ЮЗ 2 10 км в посл. час гроза {дождь} 10/5 300 м
[Cu hum As op]
+23.0 +22.3 96 +31 +31 очень
душно
1012.8 972.1
06 9.09 ЮЗ 2 10 км {гроза, дождь} 8/0
[Ac trans]
+22.7 +22.4 98 +31 +31 очень
душно
1012.8 972.1 +22.0 9
09 9.09 ЮЗ 3 10 км 5/0
[Ac lent]
+26.5 +22.9 81 +35 +40 очень
душно
1014.8 974.0
15 9.09 С 2 10 км {гроза, дождь} 9/5 600 м
[Cb cap As op]
+25.5 +22.6 84 +34 +36 очень
душно
1013.1 972.0
18 9.09 С 3 10 км {гроза, дождь} 9/1 600 м
[Cu med, cong Ac As]
+25.0 +23.0 89 +33 +33 очень
душно
1012.1 971.0 +28.5 16
21 9.09 С 2 10 км 9/0
[Ac lent Cs]
+23.3 +22.9 98 +33 +33 очень
душно
1012.4 971.4
00 10.09 штиль 0 10 км 8/0
[Ac lent Ci sp]
+23.0 +22.6 98 +32 +32 очень
душно
1013.1 971.7
03 10.09 штиль 0 10 км 9/6 300 м
[Frnb As op]
+23.0 +23.0 100 +32 +32 очень
душно
1012.3 971.2
06 10.09 штиль 0 10 км 9/0
[Ac As]
+23.2 +22.9 98 +32 +32 очень
душно
1012.3 971.2 +22.8 16
09 10.09 Ю 2 10 км 9/5 600 м
[Cu med, cong Ac lent]
+26.0 +23.9 88 +36 +37 очень
душно
1014.3 973.2
12 10.09 Ю 2 10 км 8/6 600 м
[Cu med, cong Ac lent]
+30.0 +23.6 69 +41 +46 опасность
перегрева
1013.0 972.2
15 10.09 ЮВ 2 10 км 8/4 600 м
[Cb cap Ac lent]
+31.5 +23.8 64 +43 +47 опасность
перегрева
1010.0 969.4
18 10.09 В 2 10 км в посл. час дождь 8/5 480 м
[Cb calv Ac trans]
+29.5 +25.3 78 +43 +43 опасность
перегрева
1009.1 968.4 +31.5 0.9
21 10.09 ЮВ 2 10 км 8/4 480 м
[Cu med, cong]
+27.5 +24.7 85 +39 +39 очень
душно
1011.8 971.1
00 11.09 Ю 2 10 км 9/0
[As trans]
+25.5 +23.8 90 +35 +35 очень
душно
1011.8 971.2
03 11.09 Ю 2 10 км 9/0
[As trans]
+24.0 +23.3 96 +32 +32 очень
душно
1009.8 969.3
06 11.09 Ю 2 10 км 9/0
[Ac As]
+23.0 +22.6 98 +32 +32 очень
душно
1010.6 969.8 +22.5 0.9
09 11.09 ЮЗ 4 10 км 4/0
[Ac trans]
+26.0 +22.4 81 +34 +39 очень
душно
1012.2 971.4
12 11.09 Ю 2 10 км 6/1 600 м
[Cu hum Ac cast]
+30.0 +22.9 66 +40 +52 опасность
солнечного
удара
1011.5 970.9
15 11.09 Ю 2 10 км 6/3 600 м
[Cu hum Ac lent]
+32.0 +23.5 61 +43 +49 опасность
перегрева
1009.5 969.0
18 11.09 З 2 10 км 5/1 600 м
[Sc Ac trans]
+31.5 +23.4 62 +42 +42 опасность
перегрева
1009.4 968.8 +33.0
21 11.09 ЮЗ 1 10 км 3/0
[Ci fib]
+28.5 +24.3 78 +40 +40 очень
душно
1010.4 969.8
00 12.09 штиль 0 10 км 9/0
[Ac trans Cs]
+27.3 +24.9 87 +39 +39 очень
душно
1010.4 970.0
03 12.09 Ю 2 10 км 9/0
[As trans]
+26.0 +24.0 89 +36 +36 очень
душно
1009.9 969.5
06 12.09 В 2 5000 м гроза, ливневой дождь 10/4 300 м
[Cb cap As op]
+22.2 +21.9 98 +29 +29 очень
душно
1012.7 971.9 +21.8 14
09 12.09 ЮЗ 4 10 км {гроза, дождь} 9/3 600 м
[Cb cap As op]
+23.5 +22.0 91 +30 +32 очень
душно
1012.7 971.8
12 12.09 ЮВ 2 10 км {гроза, дождь} 6/0
[Ac lent]
+29.5 +23.8 71 +40 +51 опасность
солнечного
удара
1011.0 970.5 3
15 12.09 СВ 3 10 км 6/3 600 м
[Cb calv Ac lent]
+31.0 +23.2 63 +41 +46 опасность
перегрева
1009.3 968.9
03 15.09 СВ 2 10 км 9/0
[Ac As]
+23.0 +22.3 96 +31 +31 очень
душно
1001.0 970.5
09 15.09 ЮЗ 3 10 км 9/0
[Ac lent Ci fib]
+26.5 +22.1 77 +34 +38 очень
душно
1011.2 970.6
12 15.09 ЮЗ 4 10 км 9/1 600 м
[Sc Ac trans Cs]
+30.5 +24.2 69 +42 +49 опасность
перегрева
1011.1 970.4
15 15.09 СЗ 3 10 км 8/4 600 м
[Cu med, cong Ci fib]
+33.0 +24.7 62 +46 +52 опасность
перегрева
1009.3 968.8
18 15.09 З 2 10 км 8/1 600 м
[Sc Ac lent]
+31.3 +24.3 66 +43 +43 опасность
перегрева
1009.6 969.0 +33.5
21 15.09 ЮВ 7 5000 м гроза, ливневой дождь 9/4 400 м
[Cb cap As op]
+23.8 +21.1 85 +30 +30 очень
душно
1011.8 970.8

 

Местоположение метеостанции Кутиала (Мали): широта 12.38 долгота -5.47 высота над уровнем моря 367 м.

В архиве по умолчанию представлена погода в Кутиале за последнюю неделю. Архивные данные за месяц целиком и за предыдущие месяцы, начиная с января 2011 года, Вы можете получить, выбрав интересующий диапазон дат из раскрывающегося списка и нажав кнопку "Ввод!".


*Определитесь, кто Вы:
робот инопланетянин человек

Внимание! Время в таблицах - всемирное. Для получения местного времени необходимо прибавить поправку, которая равна 0 ч.

Смотрите также архив погоды в соседних городах и на ближайших метеорологических станциях:

Погода в Сикасо (Мали) (117 км)
Погода в Сане (Мали) (126 км)
Погода в Сегу (Мали) (135 км)
Погода в Бобо-Диуласо (Буркина-Фасо) (184 км)
Погода в Дедугу (Буркина-Фасо) (216 км)
Погода в Бугуни (Мали) (245 км)
Погода в Бамако (Мали) (270 км)
Погода в Мопти (Мали) (280 км)
Погода в Боромо (Буркина-Фасо) (285 км)
Погода в Корого (Кот-д'Ивуар) (330 км)

Пояснения к столбцам:

Ветер - указаны скорость ветра в м/с - средняя за 10 мин, порывы в срок и между сроками (в фигурных скобках) и направление, откуда дует ветер: С - северный, СВ - северо-восточный, В - восточный, ЮВ - юго-восточный, Ю - южный, ЮЗ - юго-западный, З - западный, СЗ - северо-западный.
Видимость - горизонтальная дальность видимости в метрах или километрах. При видимости от 1 до 10 км при отсутствии осадков обычно наблюдается дымка, при ухудшении видимости до 1 км и менее - туман. В сухую погоду видимость может ухудшаться дымом, пылью или мглою.
Явления - указаны атмосферные явления, наблюдавшиеся в срок или в последний час перед сроком; фигурными скобками обозначены явления, наблюдавшиеся между сроками (за 1-3 часа до срока); квадратными скобками обозначены град или гололедные отложения с указанием их диаметра в мм.
Облачность - указаны через наклонную черту общая и нижняя облачность в баллах и высота нижней границы облаков в метрах; квадратными скобками обозначены формы облаков: Ci - перистые, Cs - перисто-слоистые, Cc - перисто-кучевые, Ac - высококучевые, As - высокослоистые, Sc - слоисто-кучевые, Ns - слоисто-дождевые, Cu - кучевые, Cb - кучево-дождевые. Подробнее классификацию облаков см. в Атласе облаков (PDF).
T - Температура воздуха - температура, измеренная на высоте 2 м над землей.
Td - Температура точки росы - температура, при понижении до которой содержащийся в воздухе водяной пар достигнет насыщения.
f - Относительная влажность воздуха - влажноcть воздуха, измеренная на высоте 2 м над землей.
Te - Эффективная температура - температура, которую ощущает одетый по сезону человек в тени. Характеристика душности погоды. При расчете учитывается влияние влажности воздуха и скорости ветра на теплоощущения человека.
Tes - Эффективная температура на солнце - температура, которую ощущает человек, с поправкой на солнечный нагрев. Характеристика знойности погоды. Зависит от высоты солнца над горизонтом, облачности и скорости ветра. Ночью, в пасмурную погоду, а также при ветре 12 м/с и более поправка равна нулю.
P - Атмосферное давление - приведенное к уровню моря атмосферное давление.
Po - Атмосферное давление - измеренное на уровне метеостанции атмосферное давление.
Tmin - Минимальная температура - минимум температуры воздуха на высоте 2 м над землей.
Tmax - Максимальная температура - максимум температуры воздуха на высоте 2 м над землей.
R - Количество осадков - Количество выпавших осадков за период времени, мм. При наведении курсора мыши на число - период времени, за который выпало указанное количество осадков.
R24 - Количество осадков - Количество выпавших осадков за 24 часа, мм.
S - Снежный покров - Высота снежного покрова, см. При наведении курсора мыши на число - состояние снежного покрова и степень покрытия местности в баллах.